Regional Weather Roundup
Issued by NWS

Home | Current Version | Previous Version | Graphics & Text | Print | Product List | Glossary On
Versions: 1 2 3 4 5 6 7 8 9 10 11 12 13 14 15 16 17 18 19 20 21 22 23 24 25 26 27 28 29 30 31 32 33 34 35 36 37 38 39 40 41 42 43 44 45 46 47 48 49 50
000
ASUS45 KBOU 021610
RWRCO

WEATHER ROUNDUP FOR COLORADO
NATIONAL WEATHER SERVICE DENVER/BOULDER CO
1000 AM MDT THU JUL 02 2015

NOTE: "FAIR" INDICATES FEW OR NO CLOUDS BELOW 12000 FEET WITH NO
SIGNIFICANT WEATHER AND/OR OBSTRUCTIONS TO VISIBILITY.

COZ001>005-013-030-031-021700-
...NORTHWEST COLORADO...

CITY           SKY/WX    TMP DP  RH WIND       PRES   REMARKS
CRAIG          SUNNY     74  52  46 CALM      30.24F
HAYDEN         SUNNY     72  46  40 E6        30.26F
MEEKER         MOSUNNY   73  52  47 S6        30.24F
MOUNT WERNER   NOT AVBL
STEAMBOAT SPGS SUNNY     69  50  50 W5        30.28S
WALDEN         PTSUNNY   63  46  55 CALM      30.38S
$$

COZ006>008-011-021700-
...WEST CENTRAL VALLEYS...

CITY           SKY/WX    TMP DP  RH WIND       PRES   REMARKS
GRAND JUNCTION PTSUNNY   83  52  34 VRB7      30.11S
MONTROSE       PTSUNNY   82  51  34 VRB5      30.20S
EAGLE          MOSUNNY   72  50  46 CALM      30.28F
RIFLE          MOSUNNY   76  52  43 CALM      30.17F
DELTA          PTSUNNY   84  52  32 SE3       30.15F
NUCLA          PTSUNNY   77  50  38 CALM      30.26S
$$

COZ017>023-064>068-021700-
...SOUTHWEST COLORADO...

CITY           SKY/WX    TMP DP  RH WIND       PRES   REMARKS
DURANGO        CLOUDY    73  54  51 N3        30.26F
CORTEZ         SUNNY     72  56  57 NE5       30.22F
PAGOSA SPRINGS CLOUDY    65  53  65 CALM      30.33F
TELLURIDE      PTSUNNY   64  53  68 CALM      30.47F
WOLF CREEK PAS NOT AVBL
$$

COZ009-010-012-014-032>034-037-058>063-021700-
...CENTRAL COLORADO...

CITY           SKY/WX    TMP DP  RH WIND       PRES   REMARKS
ASPEN          PTSUNNY   68  50  52 N5        30.32S
BUENA VISTA    PTSUNNY   65  52  62 CALM      30.36F
COPPER MTN     PTSUNNY   59  39  47 W15G22    30.66S
BERTHOUD PASS  PTSUNNY   48  37  66 MISG      30.70R
COTTONWOOD PAS NOT AVBL
GUNNISON       PTSUNNY   66  46  48 N3        30.38F
KREMMLING      SUNNY     70  45  40 W7        30.34F
LEADVILLE      PTSUNNY   61  51  70 SW6       30.47S
SALIDA         PTSUNNY   68  54  60 E3        30.41S
SUNLIGHT       PTSUNNY   63  50  63 CALM      30.59S
WILKERSON PASS PTSUNNY   54  43  66 CALM      30.62S
$$

COZ069>075-021700-
...SAN LUIS VALLEY/SANGRE DE CRISTO MOUNTAINS...

CITY           SKY/WX    TMP DP  RH WIND       PRES   REMARKS
ALAMOSA        CLOUDY    65  51  60 CALM      30.33F
LA VETA PASS   FOG       50  48  93 MISG      30.54S VSB<1/4
SAGUACHE       PTSUNNY   64  50  59 SE5       30.37F
$$

COZ035-036-038>040-021700-
...NORTHERN COLORADO FRONT RANGE...

CITY           SKY/WX    TMP DP  RH WIND       PRES   REMARKS
DENVER INTL AP PTSUNNY   66  53  63 SW13      30.25F
DMNS CITY PARK   N/A     64  54  71 SW10G20   30.25F
AURORA         PTSUNNY   64  54  69 SW12      30.27F
FRONT RANGE AP PTSUNNY   66  55  68 SW8       30.27F
ERIE MUNI ARPT MOSUNNY   68  56  65 S12G20    30.23F
BOULDER MUN AP MOSUNNY   68  55  64 SW6       30.23F
CENTENNIAL     PTSUNNY   62  53  72 SW9       30.29F
BROOMFIELD     PTSUNNY   64  55  72 S12       30.28F
FORT COLLINS   SUNNY     66  55  68 S14       30.23F
LONGMONT       SUNNY     71  56  60 S10       30.24F
$$

COZ041-046-047-076>085-087-088-021700-
...PIKES PEAK/PALMER DIVIDE AND SOUTHERN FOOTHILLS...

CITY           SKY/WX    TMP DP  RH WIND       PRES   REMARKS
COLO. SPRINGS  PTSUNNY   64  53  67 NE15      30.31S
A. F. ACADEMY  PTSUNNY   59  53  83 N15       30.33S
ELLICOTT       PTSUNNY  N/A N/A N/A NE14      30.28R
FALCON         CLOUDY    60  51  71 N8        30.35S
FORT CARSON    PTSUNNY   66  55  68 N23       30.27S
LIMON          MOSUNNY   65  53  65 N6        30.24F
MONUMENT HILL  PTSUNNY   55  50  82 NW5       30.36F
TRINIDAD       CLOUDY    70  60  70 N15       30.24R
$$

COZ042>045-048>051-090-091-021700-
...NORTHEAST COLORADO...

CITY           SKY/WX    TMP DP  RH WIND       PRES   REMARKS
GREELEY ARPT   SUNNY     70  57  64 W9        30.23F
AKRON          MOSUNNY   68  59  73 W16       30.19R
BURLINGTON     PTSUNNY   69  52  54 N12       30.19R
WRAY           MOSUNNY   74  58  56 SW12      30.12R
STERLING       MOSUNNY   72  59  64 W14         N/A
HOLYOKE        MOSUNNY   77  61  57 W10G18    30.11S
FORT MORGAN    MOSUNNY   66  55  66 W14G21    30.21F
$$

COZ086-089-092>099-021700-
...SOUTHEAST COLORADO...

CITY           SKY/WX    TMP DP  RH WIND       PRES   REMARKS
PUEBLO         PTSUNNY   73  55  53 NE14      30.22R
LA JUNTA       MOSUNNY   72  58  61 NE15G24   30.18R
LAMAR          MOSUNNY   75  59  57 NE13      30.10R
SPRINGFIELD      N/A     75  63  66 NE13      30.12F
$$


USA.gov is the U.S. government's official web portal to all federal, state and local government web resources and services.